Weather History for La Rochelle, France

Change the Weather History Date:

Monday, September 9, 2013

  Actual Average Record
Temperature  
Mean Temperature 64 °F -  
Max Temperature 68 °F - - ()
Min Temperature 60 °F - - ()
Degree Days  
Heating Degree Days 1    
Growing Degree Days 14 (Base 50)    
Moisture  
Dew Point 56 °F    
Average Humidity 76    
Maximum Humidity 100    
Minimum Humidity 59    
Precipitation  
Precipitation 0.00 in - - ()
Sea Level Pressure  
Sea Level Pressure 30.15 in    
Wind  
Wind Speed 10 mph ()    
Max Wind Speed 18 mph    
Max Gust Speed -    
Visibility 6.0 miles    
Events Rain    
T = Trace of Precipitation, MM = Missing Value Source: Averaged Metar Reports

Daily Weather History Graph

Daily Weather History Graph

Search for Another Location

Airport:

Trip Planner

Search our weather history database for the weather conditions in past years. The results will help you decide how hot, cold, wet, or windy it might be!

Date:

Astronomy

Sep. 09, 2013 Rise Set
Actual Time 7:35 AM CEST 8:27 PM CEST
Civil Twilight 7:04 AM CEST 8:58 PM CEST
Nautical Twilight 6:28 AM CEST 9:34 PM CEST
Astronomical Twilight 5:50 AM CEST 10:12 PM CEST
Moon 11:57 AM CEST (9/9) 10:16 PM CEST (9/9)
Length of Visible Light 13h 53m
Length of Day
12h 52m
Waxing Crescent, 16% of the Moon is Illuminated
Sep 9
Waxing Crescent
Sep 12
First Quarter
Sep 19
Full
Sep 27
Last Quarter
Oct 5
New

Hourly Weather History & Observations

Time (CEST) Temp. Dew Point Humidity Pressure Visibility Wind Dir Wind Speed Gust Speed Precip Events Conditions
12:00 AM 62.6 °F 48.2 °F 59% 30.24 in 6.2 mi West 5.8 mph - N/A   Unknown
12:30 AM 60.8 °F 48.2 °F 63% 30.24 in 6.2 mi WSW 4.6 mph - N/A   Unknown
1:00 AM 60.8 °F 48.2 °F 63% 30.24 in 6.2 mi WSW 4.6 mph - N/A   Unknown
1:30 AM 62.6 °F 50.0 °F 63% 30.21 in 6.2 mi SW 5.8 mph - N/A   Unknown
2:00 AM 62.6 °F 50.0 °F 63% 30.21 in 6.2 mi SW 6.9 mph - N/A   Unknown
2:30 AM 62.6 °F 48.2 °F 59% 30.21 in 6.2 mi SSW 5.8 mph - N/A   Unknown
3:00 AM 62.6 °F 51.8 °F 68% 30.21 in 6.2 mi South 5.8 mph - N/A   Mostly Cloudy
3:30 AM 64.4 °F 51.8 °F 64% 30.21 in 6.2 mi SW 8.1 mph - N/A   Overcast
4:00 AM 64.4 °F 51.8 °F 64% 30.21 in 6.2 mi WSW 9.2 mph - N/A   Overcast
4:30 AM 64.4 °F 50.0 °F 59% 30.21 in 6.2 mi WSW 11.5 mph - N/A   Unknown
5:00 AM 64.4 °F 50.0 °F 59% 30.18 in 6.2 mi SW 11.5 mph - N/A   Unknown
5:30 AM 64.4 °F 51.8 °F 64% 30.18 in 6.2 mi WSW 13.8 mph - N/A   Mostly Cloudy
6:00 AM 60.8 °F 55.4 °F 82% 30.18 in 6.2 mi West 10.4 mph - N/A   Mostly Cloudy
6:30 AM 60.8 °F 53.6 °F 77% 30.18 in 6.2 mi WSW 6.9 mph - N/A Rain Light Rain
7:00 AM 60.8 °F 53.6 °F 77% 30.18 in 6.2 mi SSW 5.8 mph - N/A Rain Light Rain
7:30 AM 64.4 °F 53.6 °F 68% 30.18 in 6.2 mi WSW 11.5 mph - N/A   Overcast
8:00 AM 64.4 °F 53.6 °F 68% 30.15 in 6.2 mi WSW 12.7 mph - N/A   Overcast
8:30 AM 64.4 °F 55.4 °F 73% 30.18 in 6.2 mi SW 13.8 mph - N/A   Overcast
9:00 AM 62.6 °F 53.6 °F 72% 30.18 in 6.2 mi SW 13.8 mph - N/A   Overcast
9:30 AM 64.4 °F 55.4 °F 73% 30.15 in 6.2 mi SSW 9.2 mph - N/A   Overcast
10:00 AM 62.6 °F 57.2 °F 82% 30.15 in 5.6 mi WSW 16.1 mph - N/A Rain Light Rain
10:30 AM 62.6 °F 57.2 °F 82% 30.18 in 3.7 mi SW 15.0 mph - N/A Rain Light Rain
11:00 AM 62.6 °F 57.2 °F 82% 30.15 in 6.2 mi SW 17.3 mph - N/A Rain Light Rain
11:30 AM 62.6 °F 59.0 °F 88% 30.15 in 6.2 mi SSW 16.1 mph - N/A   Overcast
12:00 PM 62.6 °F 60.8 °F 94% 30.15 in - SSW 15.0 mph - N/A   Overcast
12:30 PM 62.6 °F 60.8 °F 94% 30.12 in - SSW 16.1 mph - N/A Rain Light Rain
1:00 PM 62.6 °F 62.6 °F 100% 30.12 in 3.7 mi SSW 16.1 mph - N/A Rain Light Rain
1:30 PM 64.4 °F 64.4 °F 100% 30.12 in - SSW 16.1 mph - N/A   Overcast
2:00 PM 64.4 °F 62.6 °F 94% 30.12 in 1.4 mi West 17.3 mph - N/A Rain Light Rain
2:30 PM 66.2 °F 64.4 °F 94% 30.12 in 6.2 mi WSW 10.4 mph - N/A   Overcast
3:00 PM 68.0 °F 64.4 °F 88% 30.12 in 6.2 mi West 12.7 mph - N/A   Overcast
3:30 PM 68.0 °F 60.8 °F 78% 30.12 in 6.2 mi WNW 15.0 mph - N/A   Overcast
4:00 PM 68.0 °F 60.8 °F 78% 30.09 in 6.2 mi WNW 13.8 mph - N/A   Overcast
4:30 PM 66.2 °F 60.8 °F 83% 30.09 in 6.2 mi WNW 16.1 mph - N/A   Mostly Cloudy
5:00 PM 68.0 °F 60.8 °F 78% 30.12 in 6.2 mi West 13.8 mph - N/A   Overcast
5:30 PM 66.2 °F 59.0 °F 78% 30.09 in 6.2 mi WNW 16.1 mph - N/A   Mostly Cloudy
6:00 PM 66.2 °F 59.0 °F 78% 30.09 in 6.2 mi WNW 18.4 mph - N/A   Mostly Cloudy
6:30 PM 66.2 °F 57.2 °F 73% 30.09 in 6.2 mi WNW 17.3 mph - N/A   Mostly Cloudy
7:00 PM 66.2 °F 57.2 °F 73% 30.09 in 6.2 mi West 15.0 mph - N/A   Mostly Cloudy
7:30 PM 64.4 °F 59.0 °F 83% 30.09 in 6.2 mi WNW 12.7 mph - N/A   Scattered Clouds
8:00 PM 64.4 °F 57.2 °F 77% 30.09 in 6.2 mi WNW 12.7 mph - N/A   Scattered Clouds
8:30 PM 64.4 °F 59.0 °F 83% 30.12 in 6.2 mi WNW 13.8 mph - N/A   Overcast
9:00 PM 64.4 °F 55.4 °F 73% 30.12 in 6.2 mi WNW 15.0 mph - N/A   Overcast
9:30 PM 62.6 °F 55.4 °F 77% 30.12 in 6.2 mi WNW 15.0 mph - N/A   Mostly Cloudy
10:00 PM 62.6 °F 55.4 °F 77% 30.12 in 6.2 mi WNW 15.0 mph - N/A   Partly Cloudy
10:30 PM 62.6 °F 55.4 °F 77% 30.15 in 6.2 mi WNW 16.1 mph - N/A   Unknown
11:00 PM 62.6 °F 55.4 °F 77% 30.15 in 6.2 mi WNW 13.8 mph - N/A   Unknown
11:30 PM 62.6 °F 57.2 °F 82% 30.15 in 6.2 mi WNW 13.8 mph - N/A   Scattered Clouds